2020/08/31 23:31:37+0000,-40.27,-44.99,-36.99,-27.05,-55.93,-58.19
2020/08/31 23:32:29+0000,-40.72,-44.74,-37.18,-52.06,-56.26,-58.68
2020/08/31 23:33:21+0000,-39.71,-45.96,-37.19,-52.29,-55.77,-57.55
2020/08/31 23:34:13+0000,-40.02,-45.98,-36.32,-51.49,-56.92,-56.88
2020/08/31 23:35:05+0000,-40.20,-45.23,-36.71,-51.82,-57.00,-58.12
2020/08/31 23:35:57+0000,-39.66,-44.44,-36.66,-52.20,-56.89,-57.73
2020/08/31 23:36:49+0000,-39.89,-47.14,-36.69,-51.68,-56.19,-57.68
2020/08/31 23:37:41+0000,-40.16,-44.96,-36.84,-51.14,-56.15,-57.61
2020/08/31 23:38:33+0000,-39.96,-46.17,-36.51,-51.61,-55.83,-57.75
2020/08/31 23:39:25+0000,-40.42,-44.67,-36.53,-27.14,-55.97,-57.12
2020/08/31 23:40:18+0000,-40.26,-45.57,-36.70,-52.41,-56.62,-57.40
2020/08/31 23:41:18+0000,-39.73,-45.49,-36.00,-52.34,-55.98,-57.54
2020/08/31 23:42:10+0000,-40.19,-44.48,-35.84,-52.12,-56.35,-57.19
2020/08/31 23:43:02+0000,-41.10,-44.95,-35.46,-27.31,-56.18,-57.48
2020/08/31 23:43:54+0000,-39.83,-44.89,-36.47,-51.55,-56.03,-57.46
2020/08/31 23:44:46+0000,-40.01,-45.64,-35.63,-52.05,-55.81,-58.05
2020/08/31 23:45:38+0000,-41.28,-47.34,-36.67,-51.94,-56.07,-57.79
2020/08/31 23:46:30+0000,-40.63,-44.99,-36.54,-51.41,-56.50,-57.73
2020/08/31 23:47:22+0000,-39.99,-46.09,-37.79,-51.66,-56.11,-58.17
2020/08/31 23:48:14+0000,-40.72,-45.89,-36.66,-52.41,-55.49,-57.79
2020/08/31 23:49:06+0000,-39.93,-44.61,-37.05,-52.09,-56.84,-57.40
2020/08/31 23:49:59+0000,-40.14,-46.05,-37.17,-27.65,-55.71,-57.63
2020/08/31 23:50:51+0000,-40.51,-46.30,-36.54,-27.47,-55.95,-57.75
2020/08/31 23:51:55+0000,-40.62,-47.08,-36.47,-27.61,-56.32,-58.09
2020/08/31 23:52:47+0000,-39.80,-45.60,-36.53,-52.76,-55.76,-57.53
2020/08/31 23:53:39+0000,-40.31,-45.86,-36.74,-51.83,-56.02,-57.57
2020/08/31 23:54:31+0000,-40.16,-45.74,-36.72,-27.42,-56.23,-57.49
2020/08/31 23:55:23+0000,-40.11,-44.98,-37.24,-27.37,-56.67,-57.89
2020/08/31 23:56:15+0000,-41.36,-45.34,-36.75,-52.30,-56.12,-57.04
2020/08/31 23:57:07+0000,-40.95,-44.99,-37.36,-52.07,-56.70,-57.74
2020/08/31 23:57:59+0000,-40.78,-45.04,-37.62,-27.29,-56.34,-57.55
2020/08/31 23:58:51+0000,-40.03,-46.07,-37.55,-26.94,-55.75,-58.01
2020/08/31 23:59:44+0000,-39.75,-46.10,-37.29,-52.26,-56.68,-57.85
2020/09/01 00:00:36+0000,-40.06,-44.64,-36.32,-51.73,-56.23,-57.21
2020/09/01 00:01:48+0000,-39.49,-45.80,-38.18,-53.54,-56.26,-57.58
2020/09/01 00:02:40+0000,-40.53,-45.42,-37.55,-52.70,-57.01,-57.62
2020/09/01 00:03:32+0000,-39.60,-45.02,-38.24,-26.84,-55.96,-57.96
2020/09/01 00:04:24+0000,-39.94,-44.06,-39.50,-26.84,-56.60,-57.48
2020/09/01 00:05:16+0000,-39.76,-45.04,-39.20,-53.09,-56.70,-57.55
2020/09/01 00:06:08+0000,-39.70,-44.26,-38.46,-50.25,-56.55,-57.93
2020/09/01 00:07:00+0000,-39.70,-45.87,-27.00,-53.28,-56.53,-58.09
2020/09/01 00:07:52+0000,-39.45,-46.42,-38.53,-53.69,-55.94,-57.58
2020/09/01 00:08:44+0000,-39.84,-46.01,-38.98,-53.02,-56.01,-57.47
2020/09/01 00:09:36+0000,-41.40,-45.83,-26.39,-53.67,-56.27,-57.88
2020/09/01 00:10:29+0000,-40.20,-44.08,-26.58,-53.00,-56.42,-58.02
2020/09/01 00:11:28+0000,-40.03,-44.98,-39.60,-53.12,-56.45,-57.23
2020/09/01 00:12:20+0000,-39.74,-44.65,-39.97,-53.36,-56.04,-57.58
2020/09/01 00:13:12+0000,-39.96,-45.44,-38.23,-52.88,-56.32,-57.38
2020/09/01 00:14:04+0000,-39.67,-45.40,-39.86,-53.28,-56.72,-57.87
2020/09/01 00:14:56+0000,-40.12,-45.65,-36.08,-52.11,-56.21,-57.32
2020/09/01 00:15:48+0000,-39.65,-44.02,-36.49,-52.16,-56.58,-58.07
2020/09/01 00:16:40+0000,-40.32,-45.63,-35.16,-51.61,-56.05,-57.54
2020/09/01 00:17:32+0000,-40.56,-44.09,-35.73,-50.98,-56.47,-57.84
2020/09/01 00:18:25+0000,-40.35,-44.67,-35.61,-50.91,-56.10,-57.63
2020/09/01 00:19:17+0000,-40.59,-44.52,-35.30,-51.55,-56.10,-57.58
2020/09/01 00:20:09+0000,-40.48,-45.01,-35.43,-51.60,-56.92,-57.92
2020/09/01 00:21:08+0000,-40.39,-46.67,-35.43,-51.16,-56.73,-57.72
2020/09/01 00:22:00+0000,-39.89,-44.65,-35.64,-50.66,-56.92,-57.29
2020/09/01 00:22:52+0000,-40.72,-44.57,-34.93,-51.49,-56.49,-57.66
2020/09/01 00:23:45+0000,-40.38,-45.20,-35.43,-51.43,-56.54,-57.14
2020/09/01 00:24:37+0000,-39.25,-44.21,-34.89,-51.71,-56.32,-57.91
2020/09/01 00:25:29+0000,-38.32,-44.71,-35.53,-51.50,-55.81,-57.66
2020/09/01 00:26:21+0000,-39.27,-44.20,-35.39,-51.81,-57.09,-57.73
2020/09/01 00:27:13+0000,-38.83,-43.82,-35.34,-51.46,-56.36,-57.92
2020/09/01 00:28:05+0000,-39.25,-44.97,-35.79,-51.37,-56.80,-57.56
2020/09/01 00:28:57+0000,-38.66,-43.26,-39.49,-53.37,-56.48,-57.78
2020/09/01 00:29:49+0000,-38.58,-44.85,-37.29,-50.43,-56.12,-57.72
2020/09/01 00:30:41+0000,-38.73,-43.99,-37.12,-51.18,-56.27,-57.66
2020/09/01 00:31:46+0000,-38.05,-43.53,-37.54,-50.72,-56.63,-57.89
2020/09/01 00:32:38+0000,-38.69,-44.88,-36.40,-51.47,-56.55,-56.78
2020/09/01 00:33:30+0000,-39.55,-43.22,-36.68,-52.38,-56.52,-57.26
2020/09/01 00:34:22+0000,-39.52,-44.70,-39.31,-52.97,-56.66,-57.20
2020/09/01 00:35:14+0000,-39.76,-44.77,-38.96,-52.27,-55.71,-57.41
2020/09/01 00:36:06+0000,-40.60,-44.45,-36.01,-51.60,-55.03,-57.39
2020/09/01 00:36:58+0000,-39.59,-43.86,-35.65,-51.93,-56.29,-58.19
2020/09/01 00:37:50+0000,-38.43,-43.96,-37.76,-52.21,-56.48,-58.24
2020/09/01 00:38:42+0000,-39.97,-45.74,-35.92,-51.55,-56.48,-57.72
2020/09/01 00:39:34+0000,-40.24,-44.46,-35.20,-51.57,-56.17,-57.62
2020/09/01 00:40:27+0000,-40.11,-45.87,-35.74,-51.70,-54.87,-58.31
2020/09/01 00:41:26+0000,-39.92,-44.05,-35.92,-51.68,-56.52,-57.41
2020/09/01 00:42:18+0000,-39.22,-46.17,-36.17,-51.53,-56.48,-57.78
2020/09/01 00:43:10+0000,-39.87,-45.48,-35.43,-45.08,-55.92,-57.84
2020/09/01 00:44:03+0000,-40.83,-44.64,-36.09,-46.01,-56.47,-57.74
2020/09/01 00:44:55+0000,-40.60,-44.37,-36.25,-45.84,-55.92,-57.95
2020/09/01 00:45:47+0000,-39.92,-46.35,-35.52,-46.43,-55.82,-58.07
2020/09/01 00:46:39+0000,-39.64,-46.17,-26.60,-46.17,-56.19,-57.86
2020/09/01 00:47:31+0000,-37.26,-47.33,-26.43,-44.86,-56.53,-57.70
2020/09/01 00:48:23+0000,-39.05,-46.68,-35.63,-44.69,-55.77,-57.81
2020/09/01 00:49:15+0000,-38.85,-46.08,-35.20,-45.24,-55.66,-57.09
2020/09/01 00:50:07+0000,-37.85,-46.22,-26.20,-45.54,-56.14,-57.36
2020/09/01 00:51:10+0000,-38.82,-44.67,-26.36,-45.08,-56.12,-57.73
2020/09/01 00:52:02+0000,-39.54,-48.26,-26.15,-44.53,-55.80,-57.30
2020/09/01 00:52:54+0000,-40.15,-47.78,-35.84,-45.27,-55.42,-57.69
2020/09/01 00:53:46+0000,-39.63,-46.26,-35.29,-45.43,-55.89,-57.81
2020/09/01 00:54:38+0000,-39.48,-45.67,-35.61,-46.27,-56.18,-57.51
2020/09/01 00:55:30+0000,-39.79,-45.68,-35.45,-44.33,-55.70,-58.18
2020/09/01 00:56:22+0000,-38.94,-43.52,-35.10,-45.02,-55.89,-57.65
2020/09/01 00:57:14+0000,-39.43,-46.41,-35.90,-44.95,-56.01,-57.65
2020/09/01 00:58:06+0000,-39.50,-46.77,-35.26,-43.63,-55.97,-57.91
2020/09/01 00:58:58+0000,-38.82,-46.20,-35.88,-43.94,-56.06,-57.67
2020/09/01 00:59:51+0000,-38.90,-46.38,-35.65,-45.65,-55.68,-57.73
2020/09/01 01:00:43+0000,-38.27,-46.46,-35.52,-45.51,-55.77,-57.68
2020/09/01 01:01:41+0000,-38.27,-45.79,-35.82,-45.64,-55.51,-57.48
2020/09/01 01:02:33+0000,-38.05,-45.51,-35.63,-45.72,-55.55,-57.71
2020/09/01 01:03:25+0000,-38.41,-45.87,-34.80,-44.33,-56.08,-57.75
2020/09/01 01:04:17+0000,-38.70,-46.00,-35.87,-43.77,-55.58,-57.59
2020/09/01 01:05:09+0000,-39.56,-46.20,-34.88,-42.97,-55.55,-57.51
2020/09/01 01:06:01+0000,-39.13,-46.01,-34.49,-43.66,-55.87,-57.29
2020/09/01 01:06:53+0000,-38.21,-46.23,-35.07,-43.53,-56.05,-57.61
2020/09/01 01:07:45+0000,-38.96,-46.60,-35.07,-44.37,-56.58,-58.06
2020/09/01 01:08:37+0000,-38.83,-46.73,-34.87,-40.63,-55.76,-57.66
2020/09/01 01:09:29+0000,-38.64,-45.48,-34.89,-44.18,-55.22,-56.22
2020/09/01 01:10:21+0000,-40.15,-47.43,-35.13,-44.04,-55.11,-56.47
2020/09/01 01:11:19+0000,-39.43,-47.13,-34.74,-43.41,-54.56,-56.04
2020/09/01 01:12:11+0000,-41.66,-46.07,-35.47,-43.78,-54.41,-56.08
2020/09/01 01:13:03+0000,-39.54,-46.50,-34.88,-44.46,-55.23,-55.54
2020/09/01 01:13:55+0000,-39.53,-46.82,-35.47,-43.62,-54.90,-55.49
2020/09/01 01:14:47+0000,-41.77,-47.12,-34.96,-50.46,-55.31,-55.32
2020/09/01 01:15:39+0000,-39.95,-46.94,-34.94,-49.73,-55.37,-55.72
2020/09/01 01:16:31+0000,-40.83,-47.47,-34.40,-49.50,-55.97,-56.37
2020/09/01 01:17:23+0000,-39.00,-46.35,-34.68,-49.69,-55.30,-55.76
2020/09/01 01:18:15+0000,-38.58,-46.57,-34.99,-50.45,-55.90,-55.82
2020/09/01 01:19:08+0000,-40.48,-47.58,-34.81,-49.55,-54.81,-55.87
2020/09/01 01:20:00+0000,-39.51,-47.18,-34.70,-49.81,-55.28,-56.19
2020/09/01 01:20:57+0000,-39.67,-47.07,-34.68,-49.82,-55.48,-56.63
2020/09/01 01:21:50+0000,-38.75,-47.32,-34.85,-49.56,-55.19,-56.33
2020/09/01 01:22:42+0000,-39.90,-46.30,-35.15,-49.53,-55.35,-55.60
2020/09/01 01:23:34+0000,-38.96,-46.25,-34.92,-50.51,-54.78,-55.89
2020/09/01 01:24:26+0000,-39.11,-47.12,-35.21,-50.38,-55.31,-55.96
2020/09/01 01:25:18+0000,-39.40,-46.21,-37.88,-50.62,-55.50,-55.88
2020/09/01 01:26:10+0000,-38.30,-45.68,-37.52,-50.85,-55.87,-56.13
2020/09/01 01:27:02+0000,-39.67,-47.11,-37.12,-50.95,-54.93,-56.27
2020/09/01 01:27:54+0000,-40.96,-46.43,-34.63,-50.44,-55.68,-56.06
2020/09/01 01:28:46+0000,-40.28,-46.25,-34.97,-49.50,-55.15,-55.90
2020/09/01 01:29:38+0000,-39.89,-45.07,-34.17,-49.65,-54.82,-55.81
2020/09/01 01:30:30+0000,-40.46,-46.71,-35.94,-50.54,-55.22,-56.04
2020/09/01 01:31:28+0000,-40.27,-46.75,-37.22,-51.13,-54.62,-56.58
2020/09/01 01:32:20+0000,-36.94,-45.09,-37.19,-51.04,-55.33,-56.05
2020/09/01 01:33:12+0000,-35.06,-46.11,-38.51,-51.41,-55.33,-55.90
2020/09/01 01:34:04+0000,-40.35,-46.35,-34.93,-50.09,-54.86,-56.25
2020/09/01 01:34:56+0000,-36.26,-45.18,-34.96,-50.25,-55.51,-55.86
2020/09/01 01:35:48+0000,-39.69,-45.47,-38.35,-50.86,-55.71,-55.95
2020/09/01 01:36:40+0000,-39.16,-45.67,-38.09,-50.07,-55.34,-56.05
2020/09/01 01:37:32+0000,-35.63,-46.25,-37.73,-51.39,-54.71,-55.94
2020/09/01 01:38:25+0000,-39.98,-45.21,-38.53,-50.59,-55.19,-55.62
2020/09/01 01:39:17+0000,-39.41,-46.97,-38.18,-50.55,-54.88,-56.02
2020/09/01 01:40:09+0000,-40.29,-46.41,-38.13,-50.99,-55.94,-55.70
2020/09/01 01:41:06+0000,-40.37,-47.71,-38.04,-51.05,-54.70,-55.84
2020/09/01 01:41:58+0000,-40.06,-42.99,-39.10,-50.74,-54.97,-55.58
2020/09/01 01:42:50+0000,-39.55,-46.18,-38.48,-49.91,-55.81,-55.94
2020/09/01 01:43:42+0000,-40.04,-45.90,-36.53,-50.08,-55.16,-56.31
2020/09/01 01:44:34+0000,-41.19,-44.69,-37.42,-48.93,-55.20,-55.39
2020/09/01 01:45:27+0000,-40.22,-44.44,-37.38,-50.06,-55.51,-55.70
2020/09/01 01:46:19+0000,-40.16,-45.94,-36.54,-50.23,-54.86,-56.19
2020/09/01 01:47:11+0000,-40.50,-46.67,-35.56,-50.25,-54.80,-56.28
2020/09/01 01:48:03+0000,-41.26,-45.06,-34.68,-49.86,-54.78,-56.32
2020/09/01 01:48:55+0000,-39.50,-46.83,-35.18,-50.74,-54.77,-55.91
2020/09/01 01:49:47+0000,-41.27,-46.58,-35.49,-48.90,-55.16,-56.06
2020/09/01 01:50:39+0000,-40.42,-46.44,-38.35,-49.59,-54.98,-56.05
2020/09/01 01:51:37+0000,-41.09,-46.98,-39.02,-48.46,-55.68,-56.22
2020/09/01 01:52:29+0000,-40.08,-45.29,-35.48,-50.05,-55.20,-55.78
2020/09/01 01:53:21+0000,-39.43,-46.55,-34.99,-50.09,-54.35,-56.02
2020/09/01 01:54:13+0000,-39.49,-45.12,-34.84,-49.80,-55.70,-56.24
2020/09/01 01:55:05+0000,-40.66,-43.33,-35.49,-49.87,-54.65,-56.06
2020/09/01 01:55:57+0000,-40.54,-44.62,-34.62,-49.33,-53.95,-56.06
2020/09/01 01:56:49+0000,-39.69,-46.34,-36.72,-50.11,-55.59,-55.69
2020/09/01 01:57:41+0000,-40.88,-45.90,-35.96,-50.42,-55.22,-56.28
2020/09/01 01:58:33+0000,-38.96,-44.48,-37.45,-49.02,-55.22,-55.25
2020/09/01 01:59:26+0000,-40.35,-43.64,-38.15,-50.28,-54.76,-55.96
2020/09/01 02:00:18+0000,-40.01,-45.77,-37.64,-50.63,-54.64,-55.84
2020/09/01 02:01:16+0000,-39.92,-45.33,-38.34,-50.17,-55.23,-56.19
2020/09/01 02:02:08+0000,-40.75,-45.60,-38.41,-50.89,-55.10,-55.60
2020/09/01 02:03:00+0000,-40.17,-44.25,-38.01,-50.76,-55.22,-55.77
2020/09/01 02:03:52+0000,-38.66,-44.51,-38.06,-50.67,-54.89,-55.94
2020/09/01 02:04:44+0000,-40.64,-45.62,-38.32,-50.22,-55.25,-55.81
2020/09/01 02:05:36+0000,-40.43,-48.56,-36.68,-49.80,-55.04,-56.04
2020/09/01 02:06:28+0000,-40.26,-45.17,-36.88,-49.35,-55.06,-56.00
2020/09/01 02:07:20+0000,-39.86,-47.19,-37.79,-50.35,-54.86,-55.83
2020/09/01 02:08:13+0000,-39.51,-44.90,-37.94,-50.57,-54.60,-55.63
2020/09/01 02:09:05+0000,-38.40,-46.28,-37.73,-50.11,-55.17,-55.89
2020/09/01 02:09:57+0000,-37.22,-41.54,-38.31,-51.19,-53.53,-56.32
2020/09/01 02:10:49+0000,-40.35,-44.97,-38.15,-50.78,-55.21,-56.20
2020/09/01 02:11:47+0000,-40.82,-44.74,-36.72,-50.70,-54.44,-55.88
2020/09/01 02:12:39+0000,-39.99,-45.40,-35.79,-49.25,-54.97,-55.89
2020/09/01 02:13:31+0000,-39.57,-44.25,-39.00,-49.35,-54.93,-56.05
2020/09/01 02:14:24+0000,-39.92,-42.87,-35.71,-49.32,-55.49,-55.81
2020/09/01 02:15:16+0000,-40.53,-45.73,-39.31,-50.39,-54.61,-55.67
2020/09/01 02:16:08+0000,-39.74,-44.77,-39.29,-49.19,-55.19,-55.90
2020/09/01 02:17:00+0000,-39.99,-42.77,-35.18,-49.86,-54.59,-55.78
2020/09/01 02:17:52+0000,-40.22,-45.36,-38.28,-50.59,-55.45,-55.84
2020/09/01 02:18:44+0000,-40.59,-45.77,-34.83,-49.00,-55.62,-56.00
2020/09/01 02:19:36+0000,-40.34,-47.43,-34.59,-49.82,-55.28,-56.47
2020/09/01 02:20:28+0000,-39.64,-43.13,-34.86,-49.59,-55.05,-55.86
2020/09/01 02:21:26+0000,-39.48,-44.14,-36.96,-50.74,-54.24,-56.16
2020/09/01 02:22:18+0000,-39.27,-44.77,-37.31,-50.53,-55.38,-55.47
2020/09/01 02:23:10+0000,-39.50,-45.33,-37.77,-50.92,-53.64,-55.72
2020/09/01 02:24:02+0000,-39.31,-41.76,-34.62,-50.43,-53.88,-55.79
2020/09/01 02:24:54+0000,-37.87,-40.52,-35.33,-49.46,-54.59,-55.98
2020/09/01 02:25:46+0000,-39.35,-41.32,-35.01,-49.27,-54.22,-56.11
2020/09/01 02:26:38+0000,-39.79,-41.74,-34.52,-50.12,-55.18,-55.61
2020/09/01 02:27:30+0000,-40.57,-41.83,-35.19,-49.64,-54.37,-55.98
2020/09/01 02:28:22+0000,-38.47,-40.89,-34.57,-49.76,-54.83,-55.28
2020/09/01 02:29:14+0000,-39.86,-42.51,-34.47,-49.83,-54.97,-56.15
2020/09/01 02:30:07+0000,-40.76,-43.71,-35.05,-49.83,-54.63,-55.66
2020/09/01 02:31:04+0000,-39.11,-42.32,-34.74,-50.38,-54.56,-55.68
2020/09/01 02:31:56+0000,-39.51,-43.14,-34.86,-49.41,-54.68,-55.80
2020/09/01 02:32:48+0000,-39.48,-42.31,-35.02,-50.03,-54.31,-55.41
2020/09/01 02:33:40+0000,-40.18,-42.30,-34.75,-49.93,-54.51,-56.28
2020/09/01 02:34:32+0000,-40.03,-40.85,-34.67,-50.09,-54.56,-56.11
2020/09/01 02:35:24+0000,-39.24,-41.86,-34.28,-49.53,-54.96,-55.50
2020/09/01 02:36:17+0000,-38.96,-41.14,-35.13,-49.95,-54.85,-55.33
2020/09/01 02:37:09+0000,-39.56,-41.63,-35.07,-50.16,-54.85,-56.43
2020/09/01 02:38:01+0000,-39.04,-40.59,-34.73,-49.29,-54.77,-56.14
2020/09/01 02:38:53+0000,-39.08,-41.00,-36.50,-50.29,-54.71,-55.98
2020/09/01 02:39:45+0000,-39.32,-42.55,-34.80,-49.80,-55.12,-55.89
2020/09/01 02:40:37+0000,-38.78,-44.57,-34.95,-49.81,-54.52,-55.91
2020/09/01 02:41:37+0000,-39.24,-43.69,-35.10,-50.21,-54.39,-55.47
2020/09/01 02:42:29+0000,-38.47,-40.59,-34.90,-50.36,-54.41,-55.84
2020/09/01 02:43:21+0000,-38.79,-44.69,-35.48,-49.77,-55.08,-56.39
2020/09/01 02:44:13+0000,-39.12,-42.50,-35.78,-50.55,-54.28,-56.01
2020/09/01 02:45:05+0000,-39.43,-45.34,-35.54,-50.00,-55.46,-56.14
2020/09/01 02:45:57+0000,-39.56,-43.43,-35.29,-50.72,-54.71,-56.29
2020/09/01 02:46:49+0000,-38.24,-43.02,-34.84,-49.78,-55.02,-56.56
2020/09/01 02:47:41+0000,-38.72,-41.62,-35.32,-50.44,-54.65,-55.59
2020/09/01 02:48:33+0000,-38.99,-42.65,-35.02,-49.50,-55.15,-56.09
2020/09/01 02:49:25+0000,-37.27,-42.80,-35.00,-50.22,-55.41,-56.19
2020/09/01 02:50:18+0000,-36.52,-43.95,-35.16,-48.60,-55.31,-56.44
2020/09/01 02:51:17+0000,-38.37,-42.21,-36.14,-49.32,-55.13,-56.08
2020/09/01 02:52:09+0000,-39.09,-43.06,-34.68,-49.00,-55.76,-55.70
2020/09/01 02:53:01+0000,-38.27,-42.03,-34.88,-49.34,-54.62,-55.54
2020/09/01 02:53:53+0000,-37.86,-42.15,-35.55,-49.83,-55.35,-56.17
2020/09/01 02:54:45+0000,-39.29,-43.33,-35.31,-50.42,-54.97,-55.78
2020/09/01 02:55:37+0000,-39.75,-44.98,-35.48,-49.63,-54.94,-56.27
2020/09/01 02:56:29+0000,-39.00,-43.07,-34.46,-50.36,-54.63,-55.44
2020/09/01 02:57:22+0000,-36.50,-44.01,-35.37,-49.87,-54.92,-55.92
2020/09/01 02:58:14+0000,-39.28,-43.21,-35.89,-50.09,-53.30,-56.30
2020/09/01 02:59:06+0000,-38.78,-44.08,-35.60,-49.75,-55.22,-55.83
2020/09/01 02:59:58+0000,-38.61,-40.52,-35.21,-49.77,-55.51,-55.87
2020/09/01 03:00:50+0000,-37.98,-42.40,-35.31,-50.34,-55.36,-56.65
2020/09/01 03:01:50+0000,-39.57,-43.86,-36.02,-49.70,-54.05,-56.70
2020/09/01 03:02:42+0000,-37.22,-42.11,-36.04,-50.07,-55.06,-55.93
2020/09/01 03:03:34+0000,-37.84,-43.71,-35.36,-50.53,-54.50,-56.12
2020/09/01 03:04:26+0000,-37.66,-40.76,-36.11,-49.78,-54.96,-55.85
2020/09/01 03:05:18+0000,-37.69,-42.04,-35.98,-49.48,-54.78,-55.98
2020/09/01 03:06:10+0000,-39.26,-42.00,-35.82,-50.37,-54.20,-56.51
2020/09/01 03:07:02+0000,-38.45,-42.46,-34.77,-49.68,-55.03,-56.16
2020/09/01 03:07:54+0000,-36.25,-40.35,-35.15,-49.86,-55.58,-55.74
2020/09/01 03:08:47+0000,-38.18,-44.21,-35.70,-50.06,-55.04,-55.94
2020/09/01 03:09:39+0000,-39.06,-44.80,-36.06,-50.64,-55.53,-56.19
2020/09/01 03:10:31+0000,-38.37,-40.20,-35.92,-49.89,-54.83,-55.68
2020/09/01 03:11:31+0000,-39.41,-41.22,-36.18,-49.78,-55.86,-56.28
2020/09/01 03:12:23+0000,-36.87,-40.58,-35.06,-50.65,-55.53,-56.47
2020/09/01 03:13:15+0000,-38.88,-43.13,-35.99,-49.99,-55.11,-56.19
2020/09/01 03:14:07+0000,-38.27,-43.93,-35.67,-49.64,-55.27,-56.51
2020/09/01 03:14:59+0000,-39.42,-42.38,-35.48,-50.30,-54.95,-55.07
2020/09/01 03:15:51+0000,-35.53,-35.51,-35.48,-49.83,-55.08,-56.28
2020/09/01 03:16:43+0000,-38.53,-43.64,-35.90,-50.40,-55.85,-55.85
2020/09/01 03:17:35+0000,-37.74,-45.68,-35.45,-50.40,-55.10,-56.18
2020/09/01 03:18:28+0000,-34.71,-42.24,-35.56,-50.15,-55.17,-55.94
2020/09/01 03:19:20+0000,-37.16,-44.02,-35.88,-50.08,-54.59,-55.90
2020/09/01 03:20:12+0000,-38.22,-43.03,-36.08,-49.79,-55.42,-56.33
2020/09/01 03:21:11+0000,-38.82,-44.36,-35.74,-50.12,-55.96,-56.30
2020/09/01 03:22:03+0000,-38.98,-43.39,-36.58,-50.24,-55.71,-56.19
2020/09/01 03:22:55+0000,-38.16,-42.55,-35.61,-49.96,-55.86,-55.63
2020/09/01 03:23:47+0000,-37.69,-42.59,-35.72,-50.09,-55.31,-56.41
2020/09/01 03:24:40+0000,-38.20,-44.20,-35.69,-50.01,-55.77,-55.96
2020/09/01 03:25:32+0000,-38.81,-42.69,-35.78,-49.19,-55.74,-55.70
2020/09/01 03:26:24+0000,-36.49,-43.62,-35.34,-48.63,-56.02,-56.16
2020/09/01 03:27:16+0000,-37.48,-43.49,-35.48,-49.35,-55.24,-55.91
2020/09/01 03:28:08+0000,-38.58,-45.48,-35.61,-50.24,-55.26,-55.68
2020/09/01 03:29:00+0000,-39.10,-42.55,-36.50,-49.80,-55.73,-56.17
2020/09/01 03:29:52+0000,-38.02,-43.25,-35.84,-50.45,-55.48,-56.24
2020/09/01 03:30:44+0000,-39.12,-42.14,-35.45,-50.64,-55.62,-56.19
2020/09/01 03:31:44+0000,-38.24,-42.88,-35.14,-50.32,-55.67,-56.54
2020/09/01 03:32:36+0000,-38.97,-42.87,-35.34,-49.28,-55.56,-56.29
2020/09/01 03:33:28+0000,-38.21,-42.12,-35.38,-48.88,-56.32,-57.33
2020/09/01 03:34:20+0000,-37.96,-43.03,-36.10,-49.61,-56.25,-56.99
2020/09/01 03:35:12+0000,-39.49,-41.60,-35.28,-48.73,-56.32,-57.01
2020/09/01 03:36:04+0000,-38.14,-42.38,-35.66,-49.66,-56.16,-56.21
2020/09/01 03:36:56+0000,-35.85,-43.78,-35.42,-49.83,-55.39,-57.04
2020/09/01 03:37:48+0000,-35.99,-40.79,-35.73,-50.05,-55.42,-56.46
2020/09/01 03:38:40+0000,-38.49,-41.87,-35.60,-49.52,-55.68,-56.60
2020/09/01 03:39:32+0000,-39.22,-43.71,-35.56,-50.63,-56.28,-56.03
2020/09/01 03:40:25+0000,-36.90,-44.15,-36.08,-49.30,-55.48,-55.88
2020/09/01 03:41:24+0000,-37.81,-43.84,-35.57,-50.16,-56.10,-56.17
2020/09/01 03:42:16+0000,-39.03,-41.62,-35.61,-48.92,-56.43,-55.91
2020/09/01 03:43:08+0000,-35.92,-43.60,-36.14,-49.16,-55.91,-55.91
2020/09/01 03:44:00+0000,-39.14,-42.11,-36.05,-48.22,-55.54,-55.94
2020/09/01 03:44:52+0000,-39.11,-45.49,-35.71,-49.23,-55.93,-56.04
2020/09/01 03:45:44+0000,-34.52,-44.78,-35.95,-49.94,-55.68,-55.88
2020/09/01 03:46:36+0000,-35.97,-47.03,-35.12,-49.18,-54.97,-56.25
2020/09/01 03:47:28+0000,-37.20,-47.05,-35.87,-49.32,-55.54,-55.31
2020/09/01 03:48:20+0000,-39.11,-46.06,-36.75,-49.88,-55.49,-55.31
2020/09/01 03:49:13+0000,-39.78,-45.89,-35.45,-49.11,-55.95,-56.18
2020/09/01 03:50:05+0000,-40.56,-46.80,-35.84,-48.67,-55.93,-56.28
2020/09/01 03:51:05+0000,-37.43,-48.40,-35.45,-49.60,-56.00,-56.11
2020/09/01 03:51:57+0000,-38.97,-46.99,-35.79,-50.27,-55.75,-55.67
2020/09/01 03:52:49+0000,-36.34,-47.03,-36.00,-50.40,-55.88,-55.77
2020/09/01 03:53:41+0000,-38.49,-48.10,-35.95,-49.44,-55.86,-56.42
2020/09/01 03:54:33+0000,-40.04,-46.19,-35.95,-50.20,-55.55,-55.53
2020/09/01 03:55:25+0000,-39.32,-48.73,-35.16,-49.77,-55.51,-55.83
2020/09/01 03:56:17+0000,-37.41,-48.27,-35.52,-49.50,-55.83,-55.81
2020/09/01 03:57:09+0000,-39.70,-48.17,-35.77,-49.23,-56.28,-56.01
2020/09/01 03:58:01+0000,-39.15,-45.60,-35.74,-49.90,-55.95,-56.12
2020/09/01 03:58:53+0000,-35.86,-49.46,-35.80,-50.24,-55.46,-55.53
2020/09/01 03:59:45+0000,-38.38,-42.57,-35.52,-49.51,-55.45,-55.80
2020/09/01 04:00:37+0000,-38.05,-49.71,-36.11,-49.33,-55.87,-56.31
2020/09/01 04:01:36+0000,-38.29,-49.03,-34.94,-49.92,-55.57,-56.08
2020/09/01 04:02:28+0000,-40.17,-46.02,-34.76,-50.17,-55.36,-55.94
2020/09/01 04:03:20+0000,-37.81,-49.81,-35.38,-50.37,-53.20,-55.29
2020/09/01 04:04:12+0000,-39.03,-43.47,-34.23,-49.54,-55.73,-55.80
2020/09/01 04:05:04+0000,-39.93,-47.63,-35.39,-49.42,-55.38,-55.66
2020/09/01 04:05:57+0000,-38.89,-46.17,-36.05,-49.75,-55.02,-56.19
2020/09/01 04:06:49+0000,-38.45,-46.69,-34.84,-49.57,-55.15,-56.08
2020/09/01 04:07:41+0000,-39.12,-47.74,-31.63,-51.00,-55.78,-50.62
2020/09/01 04:08:33+0000,-37.96,-44.55,-36.07,-49.78,-55.91,-55.61
2020/09/01 04:09:25+0000,-37.30,-43.28,-36.60,-50.44,-55.42,-55.99
2020/09/01 04:10:17+0000,-37.95,-44.34,-36.57,-50.25,-55.93,-55.38
2020/09/01 04:11:21+0000,-37.59,-42.95,-36.53,-49.09,-55.20,-55.72
2020/09/01 04:12:13+0000,-38.96,-43.84,-36.95,-50.13,-55.43,-55.87
2020/09/01 04:13:05+0000,-39.12,-44.07,-37.11,-49.98,-53.41,-56.24
2020/09/01 04:13:57+0000,-36.63,-43.29,-36.89,-49.84,-55.51,-55.43
2020/09/01 04:14:50+0000,-37.02,-44.89,-37.24,-50.10,-55.63,-56.11
2020/09/01 04:15:42+0000,-37.37,-43.57,-36.88,-48.48,-55.65,-55.17
2020/09/01 04:16:34+0000,-37.48,-43.51,-38.02,-50.16,-55.60,-55.42
2020/09/01 04:17:26+0000,-37.53,-42.76,-36.54,-49.76,-55.63,-56.16
2020/09/01 04:18:18+0000,-37.48,-43.15,-36.46,-50.05,-55.03,-55.52
2020/09/01 04:19:10+0000,-37.86,-45.30,-36.87,-49.22,-55.77,-55.34
2020/09/01 04:20:02+0000,-38.05,-43.86,-36.75,-49.09,-55.21,-55.36
2020/09/01 04:21:07+0000,-38.24,-45.08,-36.37,-50.34,-55.84,-55.90
2020/09/01 04:21:59+0000,-40.84,-43.76,-36.00,-50.66,-55.39,-55.71
2020/09/01 04:22:51+0000,-37.47,-44.67,-36.58,-49.94,-56.38,-55.27
2020/09/01 04:23:43+0000,-38.18,-43.70,-37.28,-50.05,-55.59,-54.82
2020/09/01 04:24:35+0000,-37.54,-45.66,-35.60,-49.55,-55.67,-54.55
2020/09/01 04:25:27+0000,-36.53,-43.66,-36.87,-49.95,-55.31,-55.75
2020/09/01 04:26:19+0000,-36.50,-43.72,-36.77,-50.05,-55.70,-55.07
2020/09/01 04:27:11+0000,-36.51,-43.91,-36.52,-50.24,-55.64,-55.78
2020/09/01 04:28:03+0000,-30.85,-44.56,-36.22,-50.28,-54.93,-55.28
2020/09/01 04:28:55+0000,-37.24,-44.38,-36.80,-48.91,-54.96,-55.27
2020/09/01 04:29:48+0000,-36.25,-44.66,-36.53,-49.77,-54.91,-55.72
2020/09/01 04:30:40+0000,-36.91,-44.05,-36.37,-50.21,-55.77,-55.35
2020/09/01 04:31:39+0000,-36.33,-44.38,-36.98,-49.27,-55.32,-55.79
2020/09/01 04:32:31+0000,-38.82,-45.10,-36.88,-48.92,-55.29,-55.93
2020/09/01 04:33:23+0000,-36.84,-45.15,-36.55,-49.39,-55.25,-56.15
2020/09/01 04:34:15+0000,-39.74,-45.02,-36.88,-49.29,-55.63,-56.22
2020/09/01 04:35:08+0000,-35.70,-45.07,-36.63,-48.97,-54.83,-55.81
2020/09/01 04:36:00+0000,-40.59,-44.58,-36.68,-49.16,-55.21,-55.58
2020/09/01 04:36:52+0000,-36.20,-45.12,-36.05,-48.93,-55.43,-55.97
2020/09/01 04:37:44+0000,-39.82,-46.33,-36.90,-49.98,-53.32,-55.55
2020/09/01 04:38:36+0000,-39.43,-45.03,-37.08,-48.02,-55.00,-56.33
2020/09/01 04:39:28+0000,-36.65,-45.61,-36.78,-50.12,-55.37,-56.22
2020/09/01 04:40:20+0000,-37.81,-44.20,-36.22,-49.47,-55.97,-56.01
2020/09/01 04:41:19+0000,-38.67,-46.37,-37.19,-47.98,-55.45,-56.48
2020/09/01 04:42:11+0000,-38.29,-43.61,-36.56,-49.45,-55.01,-55.90
2020/09/01 04:43:03+0000,-36.76,-46.14,-37.36,-48.49,-55.61,-55.67
2020/09/01 04:43:55+0000,-37.83,-48.75,-37.82,-49.43,-54.46,-56.21
2020/09/01 04:44:48+0000,-37.64,-48.60,-37.18,-49.85,-54.83,-55.83
2020/09/01 04:45:40+0000,-38.98,-49.33,-38.19,-49.35,-55.55,-56.40